| time (UTC) | temp C | wind direction | speed KPH | gust KPH | rain 1hr cm | rain 24hr cm | rain mn cm | humidity % | barometer mb |
| 20260502151723 | 28 | 8 | 3.2 | 8.0 | 0.00 | 0.00 | 0.00 | 74 | 1014.0 |
| 20260502151222 | 28 | 334 | 4.8 | 9.7 | 0.00 | 0.00 | 0.00 | 73 | 1013.0 |
| 20260502150722 | 28 | 341 | 6.4 | 9.7 | 0.00 | 0.00 | 0.00 | 73 | 1013.0 |
| 20260502150222 | 28 | 9 | 3.2 | 8.0 | 0.00 | 0.00 | 0.00 | 74 | 1013.0 |
| 20260502130722 | 26 | 308 | 8.0 | 14.5 | 0.00 | 0.00 | 0.00 | 83 | 1012.0 |
| 20260502130222 | 26 | 290 | 8.0 | 12.9 | 0.00 | 0.00 | 0.00 | 83 | 1012.0 |
| 20260502123722 | 26 | 336 | 4.8 | 8.0 | 0.00 | 0.00 | 0.00 | 85 | 1012.0 |
| 20260502123223 | 26 | 331 | 4.8 | 9.7 | 0.00 | 0.00 | 0.00 | 85 | 1011.0 |
| 20260502122723 | 26 | 9 | 4.8 | 6.4 | 0.00 | 0.00 | 0.00 | 85 | 1011.0 |
| 20260502122222 | 26 | 354 | 3.2 | 4.8 | 0.00 | 0.00 | 0.00 | 85 | 1011.0 |
| 20260502121722 | 26 | 359 | 1.6 | 4.8 | 0.00 | 0.00 | 0.00 | 85 | 1011.0 |
| 20260502121222 | 26 | 309 | 3.2 | 6.4 | 0.00 | 0.00 | 0.00 | 85 | 1011.0 |
| 20260502120722 | 26 | 266 | 3.2 | 8.0 | 0.00 | 0.00 | 0.00 | 85 | 1011.0 |
| 20260502120222 | 26 | 313 | 4.8 | 8.0 | 0.00 | 0.00 | 0.00 | 85 | 1011.0 |
| 20260502115722 | 26 | 315 | 4.8 | 8.0 | 0.00 | 0.00 | 0.00 | 85 | 1011.0 |
| 20260502115222 | 26 | 313 | 3.2 | 6.4 | 0.00 | 0.00 | 0.00 | 85 | 1010.0 |
| 20260502114722 | 26 | 312 | 3.2 | 6.4 | 0.00 | 0.00 | 0.00 | 85 | 1010.0 |
| 20260502114222 | 26 | 277 | 4.8 | 9.7 | 0.00 | 0.00 | 0.00 | 85 | 1010.0 |
| 20260502113723 | 26 | 291 | 4.8 | 9.7 | 0.00 | 0.00 | 0.00 | 85 | 1010.0 |
| 20260502113222 | 26 | 310 | 4.8 | 11.3 | 0.00 | 0.00 | 0.00 | 86 | 1010.0 |
| 20260502112723 | 26 | 255 | 4.8 | 11.3 | 0.00 | 0.00 | 0.00 | 86 | 1010.0 |
| 20260502112222 | 26 | 272 | 3.2 | 9.7 | 0.00 | 0.00 | 0.00 | 86 | 1010.0 |
| 20260502111723 | 26 | 267 | 4.8 | 11.3 | 0.00 | 0.00 | 0.00 | 86 | 1010.0 |
| 20260502111222 | 26 | 297 | 4.8 | 11.3 | 0.00 | 0.00 | 0.00 | 86 | 1010.0 |
| 20260502110723 | 26 | 353 | 3.2 | 8.0 | 0.00 | 0.00 | 0.00 | 86 | 1010.0 |
| 20260502110223 | 26 | 302 | 4.8 | 9.7 | 0.00 | 0.00 | 0.00 | 86 | 1010.0 |
| 20260502105722 | 25 | 271 | 4.8 | 11.3 | 0.00 | 0.00 | 0.00 | 86 | 1010.0 |
| 20260502105222 | 25 | 298 | 4.8 | 8.0 | 0.00 | 0.00 | 0.00 | 86 | 1010.0 |
| 20260502104722 | 25 | 271 | 4.8 | 11.3 | 0.00 | 0.00 | 0.00 | 86 | 1009.0 |
| 20260502104222 | 25 | 295 | 6.4 | 9.7 | 0.00 | 0.00 | 0.00 | 86 | 1009.0 |
| 20260502103722 | 25 | 268 | 4.8 | 9.7 | 0.00 | 0.00 | 0.00 | 86 | 1009.0 |
| 20260502103222 | 25 | 284 | 4.8 | 8.0 | 0.00 | 0.00 | 0.00 | 86 | 1009.0 |
| 20260502102722 | 25 | 288 | 3.2 | 9.7 | 0.00 | 0.00 | 0.00 | 85 | 1009.0 |
| 20260502102222 | 25 | 308 | 3.2 | 8.0 | 0.00 | 0.00 | 0.00 | 85 | 1009.0 |
| 20260502101722 | 25 | 311 | 3.2 | 9.7 | 0.00 | 0.00 | 0.00 | 85 | 1009.0 |
| 20260502101224 | 25 | 256 | 3.2 | 6.4 | 0.00 | 0.00 | 0.00 | 85 | 1009.0 |
| 20260502100722 | 25 | 313 | 4.8 | 9.7 | 0.00 | 0.00 | 0.00 | 86 | 1008.0 |
| 20260502100222 | 25 | 258 | 3.2 | 8.0 | 0.00 | 0.00 | 0.00 | 86 | 1008.0 |
| 20260502091222 | 26 | 290 | 4.8 | 8.0 | 0.00 | 0.00 | 0.00 | 84 | 1007.0 |
| 20260502090722 | 26 | 284 | 4.8 | 9.7 | 0.00 | 0.00 | 0.00 | 84 | 1007.0 |
| 20260502090222 | 26 | 331 | 3.2 | 8.0 | 0.00 | 0.00 | 0.00 | 84 | 1007.0 |
| 20260502071222 | 27 | 345 | 1.6 | 4.8 | 0.00 | 0.00 | 0.00 | 80 | 1007.0 |
| 20260502070722 | 27 | 299 | 1.6 | 3.2 | 0.00 | 0.00 | 0.00 | 80 | 1007.0 |
| 20260502070222 | 27 | 317 | 1.6 | 4.8 | 0.00 | 0.00 | 0.00 | 79 | 1007.0 |
| 20260502065722 | 27 | 320 | 1.6 | 4.8 | 0.00 | 0.00 | 0.00 | 79 | 1007.0 |
| 20260502065222 | 27 | 338 | 1.6 | 3.2 | 0.00 | 0.00 | 0.00 | 79 | 1007.0 |
| 20260502064723 | 27 | 290 | 1.6 | 4.8 | 0.00 | 0.00 | 0.00 | 79 | 1007.0 |
| 20260502064222 | 27 | 339 | 3.2 | 8.0 | 0.00 | 0.00 | 0.00 | 78 | 1007.0 |
| 20260502063722 | 27 | 281 | 4.8 | 9.7 | 0.00 | 0.00 | 0.00 | 78 | 1007.0 |
| 20260502063222 | 27 | 327 | 1.6 | 6.4 | 0.00 | 0.00 | 0.00 | 78 | 1007.0 |
| 20260502062722 | 27 | 318 | 3.2 | 8.0 | 0.00 | 0.00 | 0.00 | 77 | 1007.0 |
| 20260502062222 | 27 | 346 | 3.2 | 4.8 | 0.00 | 0.00 | 0.00 | 77 | 1007.0 |
| 20260502061722 | 28 | 331 | 1.6 | 4.8 | 0.00 | 0.00 | 0.00 | 77 | 1007.0 |
| 20260502061222 | 28 | 273 | 1.6 | 4.8 | 0.00 | 0.00 | 0.00 | 77 | 1007.0 |
| 20260502060722 | 28 | 1 | 1.6 | 4.8 | 0.00 | 0.00 | 0.00 | 76 | 1007.0 |
| 20260502060222 | 28 | 332 | 1.6 | 6.4 | 0.00 | 0.00 | 0.00 | 76 | 1007.0 |
| 20260502055722 | 28 | 307 | 3.2 | 6.4 | 0.00 | 0.00 | 0.00 | 76 | 1007.0 |
| 20260502055222 | 28 | 291 | 3.2 | 6.4 | 0.00 | 0.00 | 0.00 | 76 | 1007.0 |
| 20260502054722 | 28 | 294 | 3.2 | 6.4 | 0.00 | 0.00 | 0.00 | 76 | 1008.0 |
| 20260502054222 | 28 | 268 | 3.2 | 4.8 | 0.00 | 0.00 | 0.00 | 76 | 1007.0 |
| 20260502053722 | 28 | 285 | 3.2 | 6.4 | 0.00 | 0.00 | 0.00 | 75 | 1008.0 |
| 20260502053223 | 28 | 295 | 3.2 | 6.4 | 0.00 | 0.00 | 0.00 | 75 | 1008.0 |
| 20260502052722 | 28 | 300 | 3.2 | 6.4 | 0.00 | 0.00 | 0.00 | 75 | 1008.0 |
| 20260502052222 | 28 | 292 | 1.6 | 4.8 | 0.00 | 0.00 | 0.00 | 75 | 1007.0 |
| 20260502051723 | 28 | 354 | 3.2 | 4.8 | 0.00 | 0.00 | 0.00 | 75 | 1008.0 |
| 20260502051222 | 28 | 321 | 1.6 | 4.8 | 0.00 | 0.00 | 0.00 | 74 | 1008.0 |
| 20260502050722 | 28 | 332 | 3.2 | 4.8 | 0.00 | 0.00 | 0.00 | 74 | 1008.0 |
| 20260502050222 | 28 | 304 | 3.2 | 6.4 | 0.00 | 0.00 | 0.00 | 74 | 1008.0 |
| 20260502045723 | 28 | 286 | 3.2 | 6.4 | 0.00 | 0.00 | 0.00 | 74 | 1008.0 |
| 20260502045222 | 28 | 316 | 6.4 | 11.3 | 0.00 | 0.00 | 0.00 | 74 | 1008.0 |
| 20260502044722 | 28 | 316 | 4.8 | 8.0 | 0.00 | 0.00 | 0.00 | 74 | 1008.0 |
| 20260502044222 | 28 | 3 | 4.8 | 8.0 | 0.00 | 0.00 | 0.00 | 74 | 1008.0 |
| 20260502043722 | 28 | 273 | 4.8 | 9.7 | 0.00 | 0.00 | 0.00 | 74 | 1008.0 |
| 20260502043222 | 28 | 275 | 4.8 | 9.7 | 0.00 | 0.00 | 0.00 | 73 | 1008.0 |
| 20260502042722 | 28 | 334 | 6.4 | 9.7 | 0.00 | 0.00 | 0.00 | 74 | 1008.0 |
| 20260502042222 | 28 | 277 | 6.4 | 12.9 | 0.00 | 0.00 | 0.00 | 73 | 1008.0 |
| 20260502041722 | 28 | 294 | 6.4 | 11.3 | 0.00 | 0.00 | 0.00 | 73 | 1008.0 |
| 20260502041222 | 28 | 288 | 6.4 | 12.9 | 0.00 | 0.00 | 0.00 | 73 | 1008.0 |
| 20260502040723 | 28 | 274 | 4.8 | 8.0 | 0.00 | 0.00 | 0.00 | 73 | 1007.0 |
| 20260502040222 | 28 | 306 | 4.8 | 11.3 | 0.00 | 0.00 | 0.00 | 72 | 1007.0 |
| 20260502035722 | 28 | 286 | 6.4 | 11.3 | 0.00 | 0.00 | 0.00 | 72 | 1007.0 |
| 20260502035222 | 28 | 278 | 6.4 | 11.3 | 0.00 | 0.00 | 0.00 | 72 | 1007.0 |
| 20260502034722 | 28 | 289 | 4.8 | 9.7 | 0.00 | 0.00 | 0.00 | 71 | 1007.0 |
| 20260502034222 | 28 | 321 | 8.0 | 12.9 | 0.00 | 0.00 | 0.00 | 71 | 1007.0 |
| 20260502033723 | 28 | 251 | 8.0 | 11.3 | 0.00 | 0.00 | 0.00 | 72 | 1007.0 |
| 20260502033222 | 29 | 298 | 6.4 | 9.7 | 0.00 | 0.00 | 0.00 | 72 | 1007.0 |
| 20260502032722 | 29 | 291 | 6.4 | 12.9 | 0.00 | 0.00 | 0.00 | 71 | 1007.0 |
| 20260502032222 | 29 | 296 | 6.4 | 11.3 | 0.00 | 0.00 | 0.00 | 72 | 1007.0 |
| 20260502031722 | 29 | 285 | 6.4 | 12.9 | 0.00 | 0.00 | 0.00 | 72 | 1007.0 |
| 20260502031222 | 29 | 309 | 6.4 | 11.3 | 0.00 | 0.00 | 0.00 | 71 | 1007.0 |
| 20260502030722 | 29 | 312 | 8.0 | 11.3 | 0.00 | 0.00 | 0.00 | 71 | 1007.0 |
| 20260502030223 | 29 | 283 | 6.4 | 11.3 | 0.00 | 0.00 | 0.00 | 71 | 1006.0 |
| 20260502025722 | 29 | 304 | 4.8 | 11.3 | 0.00 | 0.00 | 0.00 | 71 | 1006.0 |
| 20260502025222 | 30 | 323 | 4.8 | 9.7 | 0.00 | 0.00 | 0.00 | 71 | 1006.0 |
| 20260502024722 | 30 | 262 | 4.8 | 8.0 | 0.00 | 0.00 | 0.00 | 71 | 1006.0 |
| 20260502024222 | 30 | 275 | 4.8 | 11.3 | 0.00 | 0.00 | 0.00 | 70 | 1006.0 |
| 20260502023722 | 30 | 287 | 6.4 | 9.7 | 0.00 | 0.00 | 0.00 | 70 | 1006.0 |
| 20260502023222 | 30 | 290 | 6.4 | 11.3 | 0.00 | 0.00 | 0.00 | 70 | 1006.0 |
| 20260502022722 | 30 | 311 | 4.8 | 8.0 | 0.00 | 0.00 | 0.00 | 69 | 1006.0 |
| 20260502022224 | 30 | 19 | 4.8 | 9.7 | 0.00 | 0.00 | 0.00 | 69 | 1006.0 |
| 20260502021722 | 30 | 16 | 4.8 | 8.0 | 0.00 | 0.00 | 0.00 | 68 | 1006.0 |
| 20260502021222 | 30 | 329 | 4.8 | 11.3 | 0.00 | 0.00 | 0.00 | 68 | 1005.0 |
| 20260502020722 | 30 | 341 | 6.4 | 12.9 | 0.00 | 0.00 | 0.00 | 67 | 1005.0 |
| 20260502020222 | 30 | 354 | 6.4 | 9.7 | 0.00 | 0.00 | 0.00 | 67 | 1005.0 |
| 20260502015722 | 30 | 16 | 6.4 | 12.9 | 0.00 | 0.00 | 0.00 | 66 | 1005.0 |
| 20260502015223 | 31 | 315 | 6.4 | 12.9 | 0.00 | 0.00 | 0.00 | 66 | 1005.0 |
| 20260502014722 | 31 | 342 | 8.0 | 14.5 | 0.00 | 0.00 | 0.00 | 66 | 1005.0 |
| 20260502014222 | 31 | 308 | 8.0 | 11.3 | 0.00 | 0.00 | 0.00 | 65 | 1005.0 |
| 20260502013722 | 31 | 346 | 8.0 | 14.5 | 0.00 | 0.00 | 0.00 | 65 | 1005.0 |
| 20260502013222 | 31 | 13 | 9.7 | 14.5 | 0.00 | 0.00 | 0.00 | 65 | 1005.0 |
| 20260502012723 | 31 | 9 | 8.0 | 11.3 | 0.00 | 0.00 | 0.00 | 64 | 1005.0 |
| 20260502012222 | 32 | 0 | 9.7 | 17.7 | 0.00 | 0.00 | 0.00 | 64 | 1005.0 |
| 20260502011723 | 32 | 48 | 9.7 | 14.5 | 0.00 | 0.00 | 0.00 | 63 | 1005.0 |
| 20260502011222 | 32 | 5 | 9.7 | 12.9 | 0.00 | 0.00 | 0.00 | 62 | 1004.0 |
| 20260502010722 | 32 | 353 | 8.0 | 12.9 | 0.00 | 0.00 | 0.00 | 62 | 1004.0 |
| 20260502010222 | 33 | 334 | 8.0 | 12.9 | 0.00 | 0.00 | 0.00 | 60 | 1004.0 |
| 20260502005723 | 33 | 19 | 8.0 | 12.9 | 0.00 | 0.00 | 0.00 | 59 | 1004.0 |
| 20260502005222 | 34 | 2 | 8.0 | 11.3 | 0.00 | 0.00 | 0.00 | 57 | 1004.0 |
| 20260502004722 | 34 | 344 | 8.0 | 14.5 | 0.00 | 0.00 | 0.00 | 54 | 1004.0 |
| 20260502004222 | 35 | 39 | 11.3 | 14.5 | 0.00 | 0.00 | 0.00 | 53 | 1003.0 |
| 20260502003723 | 35 | 64 | 12.9 | 20.9 | 0.00 | 0.00 | 0.00 | 52 | 1003.0 |
| 20260502003222 | 36 | 11 | 9.7 | 17.7 | 0.00 | 0.00 | 0.00 | 49 | 1003.0 |
| 20260502002723 | 37 | 13 | 3.2 | 9.7 | 0.00 | 0.00 | 0.00 | 44 | 1003.0 |
| 20260502002222 | 37 | 296 | 1.6 | 4.8 | 0.00 | 0.00 | 0.00 | 43 | 1003.0 |
| 20260502001722 | 38 | 314 | 1.6 | 4.8 | 0.00 | 0.00 | 0.00 | 40 | 1003.0 |
| 20260502001222 | 38 | 271 | 1.6 | 4.8 | 0.00 | 0.00 | 0.00 | 40 | 1003.0 |
| 20260502000722 | 38 | 316 | 1.6 | 3.2 | 0.00 | 0.00 | 0.00 | 40 | 1003.0 |
| 20260502000226 | 38 | 273 | 1.6 | 3.2 | 0.00 | 0.00 | 0.00 | 39 | 1002.0 |
| 20260501235722 | 38 | 260 | 1.6 | 3.2 | 0.00 | 0.00 | 0.00 | 40 | 1002.0 |
| 20260501235224 | 38 | 305 | 1.6 | 3.2 | 0.00 | 0.00 | 0.00 | 39 | 1002.0 |
| 20260501234722 | 38 | 286 | 1.6 | 4.8 | 0.00 | 0.00 | 0.00 | 38 | 1002.0 |
| 20260501234223 | 38 | 289 | 3.2 | 6.4 | 0.00 | 0.00 | 0.00 | 37 | 1002.0 |
| 20260501233723 | 39 | 358 | 1.6 | 6.4 | 0.00 | 0.00 | 0.00 | 36 | 1002.0 |
| 20260501233222 | 40 | 297 | 1.6 | 4.8 | 0.00 | 0.00 | 0.00 | 36 | 1002.0 |
| 20260501232722 | 40 | 25 | 3.2 | 6.4 | 0.00 | 0.00 | 0.00 | 34 | 1002.0 |
| 20260501232222 | 40 | 8 | 3.2 | 4.8 | 0.00 | 0.00 | 0.00 | 33 | 1002.0 |
| 20260501231722 | 40 | 28 | 1.6 | 4.8 | 0.00 | 0.00 | 0.00 | 33 | 1002.0 |
| 20260501231223 | 40 | 136 | 3.2 | 6.4 | 0.00 | 0.00 | 0.00 | 33 | 1002.0 |
| 20260501230722 | 40 | 345 | 1.6 | 3.2 | 0.00 | 0.00 | 0.00 | 33 | 1002.0 |
| 20260501230222 | 39 | 294 | 4.8 | 8.0 | 0.00 | 0.00 | 0.00 | 34 | 1002.0 |
| 20260501225722 | 40 | 25 | 3.2 | 8.0 | 0.00 | 0.00 | 0.00 | 33 | 1002.0 |
| 20260501225222 | 40 | 15 | 6.4 | 9.7 | 0.00 | 0.00 | 0.00 | 33 | 1002.0 |
| 20260501224722 | 40 | 58 | 4.8 | 9.7 | 0.00 | 0.00 | 0.00 | 34 | 1002.0 |
| 20260501224222 | 40 | 6 | 3.2 | 8.0 | 0.00 | 0.00 | 0.00 | 32 | 1002.0 |
| 20260501223722 | 40 | 67 | 1.6 | 6.4 | 0.00 | 0.00 | 0.00 | 32 | 1002.0 |
| 20260501223222 | 40 | 48 | 3.2 | 4.8 | 0.00 | 0.00 | 0.00 | 32 | 1002.0 |
| 20260501222722 | 40 | 44 | 4.8 | 9.7 | 0.00 | 0.00 | 0.00 | 33 | 1002.0 |
| 20260501222222 | 40 | 76 | 6.4 | 9.7 | 0.00 | 0.00 | 0.00 | 34 | 1002.0 |
| 20260501221722 | 40 | 71 | 6.4 | 9.7 | 0.00 | 0.00 | 0.00 | 32 | 1002.0 |
| 20260501221222 | 41 | 57 | 3.2 | 11.3 | 0.00 | 0.00 | 0.00 | 30 | 1002.0 |
| 20260501220722 | 40 | 102 | 3.2 | 6.4 | 0.00 | 0.00 | 0.00 | 31 | 1002.0 |
| 20260501220222 | 40 | 105 | 3.2 | 8.0 | 0.00 | 0.00 | 0.00 | 31 | 1002.0 |
| 20260501215722 | 40 | 46 | 3.2 | 6.4 | 0.00 | 0.00 | 0.00 | 32 | 1002.0 |
| 20260501215223 | 40 | 30 | 4.8 | 11.3 | 0.00 | 0.00 | 0.00 | 31 | 1002.0 |
| 20260501214725 | 40 | 53 | 6.4 | 11.3 | 0.00 | 0.00 | 0.00 | 30 | 1002.0 |
| 20260501214223 | 41 | 215 | 3.2 | 4.8 | 0.00 | 0.00 | 0.00 | 32 | 1002.0 |
| 20260501213722 | 40 | 200 | 3.2 | 8.0 | 0.00 | 0.00 | 0.00 | 32 | 1002.0 |
| 20260501213222 | 40 | 120 | 6.4 | 11.3 | 0.00 | 0.00 | 0.00 | 34 | 1002.0 |
| 20260501212725 | 40 | 50 | 6.4 | 11.3 | 0.00 | 0.00 | 0.00 | 33 | 1002.0 |
| 20260501212222 | 40 | 87 | 3.2 | 11.3 | 0.00 | 0.00 | 0.00 | 31 | 1002.0 |
| 20260501211723 | 40 | 103 | 6.4 | 11.3 | 0.00 | 0.00 | 0.00 | 32 | 1002.0 |
| 20260501211222 | 40 | 127 | 6.4 | 11.3 | 0.00 | 0.00 | 0.00 | 32 | 1003.0 |
| 20260501210722 | 40 | 127 | 4.8 | 11.3 | 0.00 | 0.00 | 0.00 | 32 | 1003.0 |
| 20260501210222 | 40 | 303 | 3.2 | 8.0 | 0.00 | 0.00 | 0.00 | 33 | 1003.0 |
| 20260501205722 | 40 | 215 | 4.8 | 9.7 | 0.00 | 0.00 | 0.00 | 34 | 1003.0 |
| 20260501205222 | 40 | 127 | 6.4 | 11.3 | 0.00 | 0.00 | 0.00 | 33 | 1003.0 |
| 20260501204722 | 40 | 227 | 6.4 | 11.3 | 0.00 | 0.00 | 0.00 | 34 | 1003.0 |
| 20260501204222 | 39 | 146 | 8.0 | 12.9 | 0.00 | 0.00 | 0.00 | 36 | 1003.0 |
| 20260501203722 | 39 | 40 | 6.4 | 11.3 | 0.00 | 0.00 | 0.00 | 34 | 1003.0 |
| 20260501203222 | 39 | 247 | 8.0 | 14.5 | 0.00 | 0.00 | 0.00 | 36 | 1003.0 |
| 20260501202722 | 39 | 94 | 4.8 | 11.3 | 0.00 | 0.00 | 0.00 | 37 | 1003.0 |
| 20260501202222 | 38 | 87 | 9.7 | 16.1 | 0.00 | 0.00 | 0.00 | 38 | 1003.0 |
| 20260501201722 | 40 | 59 | 4.8 | 9.7 | 0.00 | 0.00 | 0.00 | 37 | 1003.0 |
| 20260501201222 | 39 | 161 | 6.4 | 9.7 | 0.00 | 0.00 | 0.00 | 38 | 1003.0 |
| 20260501200722 | 38 | 158 | 8.0 | 12.9 | 0.00 | 0.00 | 0.00 | 37 | 1003.0 |
| 20260501200222 | 38 | 115 | 9.7 | 14.5 | 0.00 | 0.00 | 0.00 | 37 | 1003.0 |
| 20260501195722 | 39 | 82 | 4.8 | 9.7 | 0.00 | 0.00 | 0.00 | 37 | 1004.0 |
| 20260501195222 | 38 | 98 | 8.0 | 12.9 | 0.00 | 0.00 | 0.00 | 38 | 1004.0 |
| 20260501194722 | 38 | 69 | 8.0 | 12.9 | 0.00 | 0.00 | 0.00 | 37 | 1004.0 |
| 20260501194222 | 39 | 138 | 4.8 | 14.5 | 0.00 | 0.00 | 0.00 | 37 | 1004.0 |
| 20260501193722 | 39 | 199 | 6.4 | 12.9 | 0.00 | 0.00 | 0.00 | 38 | 1004.0 |
| 20260501193222 | 38 | 195 | 8.0 | 12.9 | 0.00 | 0.00 | 0.00 | 40 | 1004.0 |
| 20260501192722 | 38 | 56 | 6.4 | 12.9 | 0.00 | 0.00 | 0.00 | 40 | 1004.0 |
| 20260501192222 | 38 | 169 | 6.4 | 6.4 | 0.00 | 0.00 | 0.00 | 41 | 1005.0 |
| 20260501191722 | 38 | 132 | 9.7 | 17.7 | 0.00 | 0.00 | 0.00 | 41 | 1005.0 |
| 20260501191223 | 38 | 121 | 6.4 | 12.9 | 0.00 | 0.00 | 0.00 | 42 | 1005.0 |
| 20260501190723 | 38 | 19 | 8.0 | 11.3 | 0.00 | 0.00 | 0.00 | 43 | 1005.0 |
| 20260501190223 | 38 | 189 | 8.0 | 11.3 | 0.00 | 0.00 | 0.00 | 41 | 1005.0 |
| 20260501185722 | 38 | 188 | 4.8 | 14.5 | 0.00 | 0.00 | 0.00 | 42 | 1005.0 |
| 20260501185222 | 37 | 63 | 8.0 | 12.9 | 0.00 | 0.00 | 0.00 | 43 | 1005.0 |
| 20260501184722 | 38 | 209 | 4.8 | 9.7 | 0.00 | 0.00 | 0.00 | 42 | 1005.0 |
| 20260501184223 | 37 | 89 | 4.8 | 9.7 | 0.00 | 0.00 | 0.00 | 43 | 1005.0 |
| 20260501183723 | 37 | 174 | 6.4 | 14.5 | 0.00 | 0.00 | 0.00 | 43 | 1005.0 |
| 20260501183222 | 37 | 210 | 8.0 | 14.5 | 0.00 | 0.00 | 0.00 | 44 | 1006.0 |
| 20260501182722 | 37 | 184 | 6.4 | 11.3 | 0.00 | 0.00 | 0.00 | 44 | 1006.0 |
| 20260501182222 | 37 | 78 | 8.0 | 11.3 | 0.00 | 0.00 | 0.00 | 44 | 1006.0 |
| 20260501181723 | 37 | 230 | 6.4 | 9.7 | 0.00 | 0.00 | 0.00 | 44 | 1006.0 |
| 20260501181222 | 37 | 189 | 6.4 | 16.1 | 0.00 | 0.00 | 0.00 | 44 | 1006.0 |
| 20260501180722 | 36 | 132 | 6.4 | 12.9 | 0.00 | 0.00 | 0.00 | 46 | 1006.0 |
| 20260501180222 | 36 | 103 | 8.0 | 14.5 | 0.00 | 0.00 | 0.00 | 46 | 1006.0 |
| 20260501175722 | 36 | 131 | 6.4 | 14.5 | 0.00 | 0.00 | 0.00 | 46 | 1006.0 |
| 20260501175222 | 36 | 127 | 8.0 | 14.5 | 0.00 | 0.00 | 0.00 | 46 | 1006.0 |
| 20260501174722 | 36 | 139 | 8.0 | 14.5 | 0.00 | 0.00 | 0.00 | 45 | 1006.0 |
| 20260501174225 | 36 | 129 | 4.8 | 12.9 | 0.00 | 0.00 | 0.00 | 46 | 1006.0 |
| 20260501173723 | 36 | 160 | 4.8 | 11.3 | 0.00 | 0.00 | 0.00 | 47 | 1006.0 |
| 20260501173223 | 35 | 115 | 6.4 | 14.5 | 0.00 | 0.00 | 0.00 | 49 | 1006.0 |
| 20260501172723 | 35 | 78 | 6.4 | 14.5 | 0.00 | 0.00 | 0.00 | 48 | 1006.0 |
| 20260501172222 | 35 | 130 | 8.0 | 12.9 | 0.00 | 0.00 | 0.00 | 49 | 1006.0 |
| 20260501171722 | 35 | 74 | 8.0 | 14.5 | 0.00 | 0.00 | 0.00 | 49 | 1007.0 |
| 20260501171223 | 35 | 141 | 6.4 | 9.7 | 0.00 | 0.00 | 0.00 | 50 | 1007.0 |
| 20260501170723 | 35 | 237 | 6.4 | 14.5 | 0.00 | 0.00 | 0.00 | 49 | 1007.0 |
| 20260501170223 | 34 | 220 | 8.0 | 14.5 | 0.00 | 0.00 | 0.00 | 51 | 1007.0 |
| 20260501165722 | 35 | 158 | 6.4 | 14.5 | 0.00 | 0.00 | 0.00 | 51 | 1007.0 |
| 20260501165222 | 34 | 156 | 6.4 | 11.3 | 0.00 | 0.00 | 0.00 | 50 | 1007.0 |
| 20260501164723 | 33 | 134 | 9.7 | 12.9 | 0.00 | 0.00 | 0.00 | 53 | 1007.0 |
| 20260501164222 | 33 | 122 | 8.0 | 12.9 | 0.00 | 0.00 | 0.00 | 54 | 1007.0 |
| 20260501163722 | 33 | 175 | 11.3 | 17.7 | 0.00 | 0.00 | 0.00 | 54 | 1007.0 |
| 20260501163222 | 33 | 110 | 9.7 | 14.5 | 0.00 | 0.00 | 0.00 | 53 | 1007.0 |
| 20260501162723 | 33 | 116 | 8.0 | 14.5 | 0.00 | 0.00 | 0.00 | 57 | 1007.0 |
| 20260501162223 | 33 | 66 | 6.4 | 9.7 | 0.00 | 0.00 | 0.00 | 56 | 1007.0 |
| 20260501161723 | 33 | 129 | 8.0 | 14.5 | 0.00 | 0.00 | 0.00 | 55 | 1007.0 |
| 20260501161222 | 33 | 52 | 8.0 | 11.3 | 0.00 | 0.00 | 0.00 | 56 | 1007.0 |
| 20260501160722 | 32 | 2 | 8.0 | 11.3 | 0.00 | 0.00 | 0.00 | 54 | 1007.0 |
| 20260501160225 | 33 | 36 | 6.4 | 11.3 | 0.00 | 0.00 | 0.00 | 52 | 1007.0 |
| 20260501155722 | 33 | 133 | 6.4 | 12.9 | 0.00 | 0.00 | 0.00 | 53 | 1007.0 |
| 20260501155223 | 32 | 65 | 8.0 | 12.9 | 0.00 | 0.00 | 0.00 | 52 | 1007.0 |
| 20260501154722 | 33 | 99 | 4.8 | 11.3 | 0.00 | 0.00 | 0.00 | 51 | 1007.0 |
| 20260501154222 | 33 | 206 | 3.2 | 4.8 | 0.00 | 0.00 | 0.00 | 50 | 1007.0 |
| 20260501153722 | 33 | 206 | 4.8 | 8.0 | 0.00 | 0.00 | 0.00 | 51 | 1007.0 |
| 20260501153223 | 32 | 163 | 3.2 | 6.4 | 0.00 | 0.00 | 0.00 | 51 | 1007.0 |
| 20260501152723 | 32 | 51 | 3.2 | 8.0 | 0.00 | 0.00 | 0.00 | 51 | 1007.0 |
| 20260501152223 | 32 | 57 | 4.8 | 8.0 | 0.00 | 0.00 | 0.00 | 51 | 1008.0 |